TimeEDT,TemperatureF,Dew PointF,Humidity,Sea Level PressureIn,VisibilityMPH,Wind Direction,Wind SpeedMPH,Gust SpeedMPH,PrecipitationIn,Events,Conditions,WindDirDegrees,DateUTC
12:54 AM,71.1,59.0,66,29.57,10.0,WNW,12.7,25.3,N/A,,Overcast,300,2013-06-14 04:54:00
1:54 AM,71.1,60.1,68,29.59,10.0,NNW,26.5,33.4,N/A,,Overcast,330,2013-06-14 05:54:00
2:54 AM,68.0,61.0,78,29.62,10.0,NNW,13.8,-,N/A,,Overcast,330,2013-06-14 06:54:00
3:54 AM,64.9,59.0,81,29.65,10.0,North,16.1,23.0,0.00,,Overcast,350,2013-06-14 07:54:00
4:38 AM,64.9,57.9,78,29.67,10.0,North,18.4,23.0,N/A,,Overcast,350,2013-06-14 08:38:00
4:54 AM,64.0,57.9,80,29.69,10.0,North,15.0,-,N/A,,Overcast,350,2013-06-14 08:54:00
5:54 AM,62.1,57.9,86,29.72,10.0,NNW,9.2,-,0.00,,Overcast,340,2013-06-14 09:54:00
6:54 AM,61.0,59.0,93,29.75,9.0,North,8.1,-,0.01,,Overcast,350,2013-06-14 10:54:00
7:29 AM,61.0,60.1,97,29.77,4.0,NNW,11.5,-,0.01,Rain,Light Rain,340,2013-06-14 11:29:00
7:54 AM,62.1,60.1,93,29.78,6.0,NNW,10.4,-,0.03,Rain,Light Rain,330,2013-06-14 11:54:00
8:04 AM,62.1,60.1,93,29.78,7.0,NNW,9.2,-,0.00,Rain,Light Rain,330,2013-06-14 12:04:00
8:46 AM,62.1,60.1,93,29.80,7.0,NNW,12.7,-,0.03,Rain,Light Rain,330,2013-06-14 12:46:00
8:54 AM,62.1,60.1,93,29.81,10.0,NNW,12.7,-,0.03,Rain,Light Rain,330,2013-06-14 12:54:00
9:27 AM,63.0,62.1,97,29.82,10.0,NNW,13.8,-,0.01,,Overcast,330,2013-06-14 13:27:00
9:34 AM,63.0,-9999,N/A,29.82,10.0,NNW,12.7,-,0.01,,Overcast,340,2013-06-14 13:34:00
9:54 AM,63.0,-9999,N/A,29.83,10.0,North,16.1,24.2,0.01,,Mostly Cloudy,350,2013-06-14 13:54:00
10:54 AM,64.9,-9999,N/A,29.87,10.0,North,13.8,24.2,N/A,,Mostly Cloudy,10,2013-06-14 14:54:00
11:54 AM,66.9,53.1,61,29.88,10.0,North,16.1,23.0,N/A,,Clear,10,2013-06-14 15:54:00
12:54 PM,69.1,52.0,54,29.89,10.0,North,12.7,-,N/A,,Scattered Clouds,10,2013-06-14 16:54:00
1:54 PM,71.1,54.0,55,29.89,10.0,NNW,11.5,-,N/A,,Partly Cloudy,330,2013-06-14 17:54:00
2:54 PM,73.0,54.0,51,29.88,10.0,NW,6.9,-,N/A,,Mostly Cloudy,310,2013-06-14 18:54:00
3:54 PM,75.0,54.0,48,29.88,10.0,WNW,9.2,-,N/A,,Mostly Cloudy,300,2013-06-14 19:54:00
4:54 PM,77.0,54.0,45,29.87,10.0,NW,6.9,-,N/A,,Partly Cloudy,320,2013-06-14 20:54:00
5:54 PM,78.1,54.0,43,29.87,10.0,WNW,8.1,-,N/A,,Clear,300,2013-06-14 21:54:00
6:54 PM,77.0,54.0,45,29.88,10.0,WNW,5.8,-,N/A,,Partly Cloudy,290,2013-06-14 22:54:00
7:54 PM,75.9,54.0,46,29.89,10.0,WNW,5.8,-,N/A,,Clear,290,2013-06-14 23:54:00
8:54 PM,73.0,55.0,53,29.91,10.0,West,4.6,-,N/A,,Clear,280,2013-06-15 00:54:00
9:54 PM,72.0,57.9,61,29.93,8.0,WNW,5.8,-,N/A,,Partly Cloudy,300,2013-06-15 01:54:00
10:54 PM,72.0,57.9,61,29.95,10.0,NW,6.9,-,N/A,,Scattered Clouds,310,2013-06-15 02:54:00
11:54 PM,69.1,57.9,68,29.96,10.0,WNW,3.5,-,N/A,,Clear,300,2013-06-15 03:54:00